Starlink 3104

decayed
NORAD ID: 49150 Int'l Des: 2021-082 Owner: SPXS Country: US Constellation: starlink
LEOCIRCULAR
Group

About Starlink 3104

Description loading...

Altitude History

Altitude vs Time

uPlot chart will show altitude changes over time

Two-Line Element Set

1 49150U 21082W 25109.22900718 .17968081 44585-5 27926-3 0 9998
2 49150 69.9786 18.4731 0011086 248.2116 214.3536 16.47722106198929
Epoch: Apr 19, 2025 • Age: 7013 hours

Current Status

Position data unavailable
Launch Date Sep 14, 2021
Age 4.3 years
Decay Date Apr 19, 2025
Type internet

Technical Details

Classification Payload
Mass 297.00 kg
Dry Mass 275.00 kg
Total Mass 297.00 kg
Length 0.20 m
Diameter 2.80 m
Span 9.00 m
Shape Box + pan
Manufacturer SPXS
Bus Type Starlink
Phase Status Unknown Transfer Status
Owner/State SPXS/US

Large Constellations

Loading constellations...